Goodland, KS

6:31 AM MST on November 12, 2019 (GMT -0700)
Renner-Goodland Municipal

Weather History for KGLD - September, 2019

Change the Weather History Date:

Friday, September 20, 2019

  Actual Average Record
Temperature  
Mean Temperature 74 °F 63 °F  
Max Temperature 86 °F 77 °F 95 °F (1970)
Min Temperature 61 °F 48 °F 30 °F (1983)
Degree Days  
Heating Degree Days 0 5  
Month to date heating degree days 2 48  
Since 1 July heating degree days 2 60  
Cooling Degree Days 9 2  
Month to date cooling degree days 170 86  
Year to date cooling degree days 1016 919  
Growing Degree Days 24 (Base 50)    
Moisture  
Dew Point 61 °F    
Average Humidity 70    
Maximum Humidity 100    
Minimum Humidity 40    
Precipitation  
Precipitation T in 0.04 in 1.47 in (1965)
Month to date precipitation 0.36 0.83  
Year to date precipitation 21.22 16.73  
Snow  
Snow 0.00 in 0.00 in - ()
Month to date snowfall 0.0 0.2  
Since 1 July snowfall 0.0 0.2  
Since 1 September snowfall 0.0 0.2  
Snow Depth 0.00 in    
Sea Level Pressure  
Sea Level Pressure 29.73 in    
Wind  
Wind Speed 21 mph (SSE)    
Max Wind Speed 37 mph    
Max Gust Speed 55 mph    
Visibility 10 miles    
Events Rain , Thunderstorm    
T = Trace of Precipitation, MM = Missing Value Source: NWS Daily Summary

Daily Weather History Graph

Daily Weather History Graph

Search for Another Location

Airport or City:

Astronomy

Sep. 20, 2019 Rise Set
Actual Time 6:32 AM MDT 6:47 PM MDT
Civil Twilight 6:05 AM MDT 7:14 PM MDT
Nautical Twilight 5:34 AM MDT 7:45 PM MDT
Astronomical Twilight 5:02 AM MDT 8:17 PM MDT
Moon 10:40 PM MDT (9/20) 12:37 PM MDT (9/20)
Length of Visible Light 13h 08m
Length of Day
12h 14m
Waning Gibbous, 64% of the Moon is Illuminated
Sep 20
Waning Gibbous
Sep 21
Last Quarter
Sep 28
New
Oct 5
First Quarter
Oct 13
Full

Hourly Weather History & Observations

Time (MDT) Temp. Heat Index Dew Point Humidity Pressure Visibility Wind Dir Wind Speed Gust Speed Precip Events Conditions
12:53 AM 66.9 °F - 61.0 °F 81% 29.82 in 10.0 mi South 11.5 mph - N/A   Mostly Cloudy
1:10 AM 66.0 °F - 60.1 °F 81% 29.95 in 10.0 mi SSE 10.4 mph - N/A Thunderstorm Thunderstorm
1:36 AM 63.0 °F - 60.1 °F 90% 29.95 in 10.0 mi SE 6.9 mph - N/A   Clear
1:53 AM 62.1 °F - 60.1 °F 93% 29.79 in 10.0 mi SSE 8.1 mph - N/A   Clear
2:53 AM 63.0 °F - 62.1 °F 97% 29.77 in 10.0 mi South 12.7 mph - N/A   Clear
3:53 AM 63.0 °F - 61.0 °F 93% 29.76 in 10.0 mi South 17.3 mph 26.5 mph N/A   Clear
4:53 AM 66.0 °F - 57.0 °F 73% 29.72 in 10.0 mi SSE 20.7 mph 29.9 mph N/A   Clear
5:19 AM 70.0 °F - 55.0 °F 59% 29.83 in 10.0 mi SSW 21.9 mph 42.6 mph N/A   Scattered Clouds
5:53 AM 70.0 °F - 57.0 °F 63% 29.72 in 10.0 mi South 21.9 mph 29.9 mph 0.00 in Rain Light Rain
6:53 AM 62.1 °F - 57.0 °F 84% 29.77 in 10.0 mi South 16.1 mph - 0.00 in   Clear
7:53 AM 62.1 °F - 57.0 °F 84% 29.78 in 10.0 mi South 18.4 mph 26.5 mph N/A   Clear
8:53 AM 66.9 °F - 57.9 °F 73% 29.80 in 10.0 mi South 21.9 mph 29.9 mph N/A   Clear
9:53 AM 71.1 °F - 59.0 °F 66% 29.79 in 10.0 mi South 25.3 mph 33.4 mph N/A   Clear
10:53 AM 73.0 °F - 60.1 °F 64% 29.77 in 10.0 mi SSE 24.2 mph 32.2 mph N/A   Mostly Cloudy
11:53 AM 77.0 °F - 60.1 °F 56% 29.74 in 10.0 mi SSE 24.2 mph 33.4 mph N/A   Clear
12:53 PM 80.1 °F 80.9 °F 60.1 °F 50% 29.71 in 10.0 mi South 24.2 mph 36.8 mph N/A   Clear
1:53 PM 82.9 °F 83.7 °F 62.1 °F 49% 29.68 in 10.0 mi SSE 21.9 mph 35.7 mph N/A   Clear
2:53 PM 84.9 °F 85.0 °F 61.0 °F 44% 29.65 in 10.0 mi South 26.5 mph 33.4 mph N/A   Partly Cloudy
3:53 PM 86.0 °F 85.4 °F 59.0 °F 40% 29.63 in 10.0 mi SSE 26.5 mph 34.5 mph N/A   Clear
4:53 PM 84.9 °F 84.8 °F 60.1 °F 43% 29.61 in 10.0 mi SSE 24.2 mph 39.1 mph N/A   Clear
5:53 PM 80.1 °F 81.5 °F 63.0 °F 56% 29.64 in 10.0 mi SSE 25.3 mph 38.0 mph N/A   Clear
6:53 PM 75.9 °F - 61.0 °F 60% 29.66 in 10.0 mi SE 17.3 mph 32.2 mph N/A   Clear
7:53 PM 73.9 °F - 62.1 °F 66% 29.67 in 10.0 mi SSE 19.6 mph 27.6 mph N/A   Clear
8:53 PM 73.0 °F - 63.0 °F 71% 29.67 in 10.0 mi South 26.5 mph 35.7 mph N/A   Clear
9:53 PM 71.1 °F - 64.0 °F 78% 29.68 in 10.0 mi South 23.0 mph 32.2 mph N/A   Clear
10:53 PM 70.0 °F - 64.0 °F 81% 29.68 in 10.0 mi South 18.4 mph 29.9 mph N/A   Clear
11:53 PM 68.0 °F - 64.9 °F 90% 29.68 in 10.0 mi South 21.9 mph 31.1 mph N/A   Clear